Wind_Speed
68 68 67 68 68 69 70 70 70 70 70 70 70 70 71 72 73 73 71 69 67 65 64 63 62 62 61 62 62 62 62 62 62 63 63 63 63 63 63 63 63 62
69 69 70 71 71 72 72 72 71 70 70 70 70 71 72 72 72 71 69 67 65 63 62 62 61 61 61 61 62 62 62 62 62 63 63 63 64 64 64 64 63 63
73 74 74 74 73 73 72 71 71 70 70 70 70 71 71 71 70 68 67 65 63 63 62 62 61 62 62 62 62 63 63 63 63 63 64 64 65 65 65 65 65 65
76 76 75 74 73 72 71 71 70 70 70 70 71 71 70 69 68 66 65 64 63 62 62 62 62 62 63 63 64 64 65 65 65 65 65 66 66 66 66 66 66 66
74 74 73 73 72 72 71 71 71 71 71 71 71 70 69 68 66 65 64 63 62 62 62 63 63 64 64 65 65 66 66 67 67 67 67 67 67 67 67 67 67 67
72 72 72 72 72 72 72 72 72 72 72 71 71 70 68 66 65 63 63 62 62 62 63 64 64 65 66 67 67 68 68 68 68 68 68 68 68 68 68 68 68 67
72 72 72 72 73 73 73 73 73 72 71 71 69 68 66 64 63 63 63 63 63 64 65 66 67 68 69 69 70 70 70 70 70 70 70 69 69 69 68 68 68 68
73 73 72 73 73 73 73 72 71 71 70 68 67 65 63 63 63 63 63 64 65 66 67 68 69 70 71 72 72 72 72 72 72 71 71 70 70 69 69 68 68 68
71 71 71 71 71 71 71 70 69 68 67 65 64 63 63 63 63 64 65 66 67 68 69 70 71 73 74 74 74 74 73 73 72 72 72 71 71 70 69 69 68 68
69 69 69 69 69 69 68 67 67 66 64 63 63 63 63 64 65 66 67 68 69 70 71 72 74 75 75 75 75 74 74 73 73 72 72 71 71 70 70 70 70 70
67 67 67 67 67 66 66 65 65 64 63 63 63 64 65 65 66 68 69 70 71 72 73 74 76 77 77 76 76 74 74 73 73 72 72 71 71 71 71 71 71 71
65 66 66 66 66 65 65 64 64 63 63 64 65 65 66 67 68 70 71 72 73 73 75 77 78 78 77 77 75 74 74 73 73 72 72 72 72 72 72 72 72 72
65 65 65 65 65 65 64 64 64 64 64 65 66 67 68 69 71 72 73 73 74 75 77 79 79 79 77 76 75 74 73 73 72 72 72 73 73 73 74 74 73 73
64 64 64 64 64 64 64 65 65 65 66 67 68 69 70 71 73 74 74 75 76 78 79 80 80 78 77 75 74 73 72 72 72 73 73 74 74 75 75 75 75 75
63 63 63 64 64 65 65 66 66 67 68 69 70 71 72 73 74 74 75 76 78 79 80 80 79 77 75 74 73 72 72 72 73 74 74 75 76 76 76 76 76 75
62 63 64 64 65 65 66 67 68 68 69 70 71 73 74 74 74 75 76 78 79 80 80 79 77 75 74 73 72 72 73 74 74 75 75 75 76 76 76 76 76 75
62 63 64 64 65 66 67 68 69 70 71 72 73 74 74 74 75 76 78 79 80 80 79 77 75 74 73 72 72 73 74 75 75 75 75 75 75 76 76 76 76 76
63 63 64 65 66 67 69 70 71 72 73 73 73 74 74 75 76 78 79 80 80 79 77 75 73 72 72 72 73 73 73 74 74 74 75 75 75 76 76 76 77 77
63 64 65 66 68 69 70 71 72 73 73 73 74 74 75 77 78 79 79 79 78 77 75 73 72 71 72 72 73 73 73 73 74 75 75 75 76 76 77 77 77 77
64 65 66 68 69 71 72 72 73 73 73 74 75 76 77 78 78 78 78 77 76 74 72 71 71 71 72 72 72 73 73 74 75 75 76 76 77 77 77 76 76 75
65 67 68 70 71 72 72 73 73 74 75 75 76 77 78 78 78 77 76 75 73 71 70 70 71 72 72 72 72 73 74 75 76 77 77 78 77 77 76 75 75 74
67 69 70 71 72 72 73 74 75 75 76 76 77 77 76 76 76 75 74 72 71 70 70 70 71 72 72 73 73 74 75 76 77 78 78 77 77 76 76 75 75 73
69 70 71 72 73 74 75 75 75 75 75 75 75 75 75 75 74 73 71 70 70 70 70 71 71 72 73 74 75 76 77 77 78 78 77 77 77 77 76 74 73 72
70 71 72 73 74 74 74 74 74 73 73 73 73 74 74 73 72 71 70 69 70 70 70 71 72 73 74 75 76 77 77 77 77 77 77 78 77 76 74 72 70 70
70 71 72 72 72 72 72 71 71 72 72 72 73 73 72 71 70 70 70 70 70 71 71 72 73 74 75 76 76 76 76 76 76 77 77 76 74 73 71 70 69 68
69 70 70 70 70 69 69 70 70 71 71 72 72 72 71 70 70 70 70 71 71 72 72 73 74 75 75 75 75 75 75 76 76 75 74 72 71 69 68 68 68 67
Wind_Direction
280 282 284 286 288 290 292 294 295 297 298 299 300 301 302 302 302 301 300 299 298 298 297 297 297 296 296 296 296 296 296 295 294 294 293 292 291 290 289 288 287 286
280 282 284 285 287 290 292 294 295 296 297 299 300 300 301 301 300 299 298 297 296 296 296 296 296 296 296 296 296 296 295 295 294 293 293 292 291 290 289 288 287 286
279 281 284 286 288 290 292 294 295 296 297 299 299 300 300 299 298 297 296 295 295 295 296 296 296 296 296 296 296 296 295 294 294 293 292 291 291 290 290 289 288 287
278 281 284 287 289 291 292 294 295 297 298 298 299 298 298 297 296 295 294 295 295 296 297 297 297 297 297 297 297 296 295 295 294 293 292 292 291 290 290 289 288 288
280 282 285 287 289 291 292 294 295 296 297 297 297 297 296 295 294 294 295 296 296 297 298 298 298 299 298 298 297 297 296 295 294 294 293 292 291 290 290 289 288 288
282 284 286 288 289 291 292 293 294 295 295 295 295 295 294 294 294 295 296 297 298 298 299 299 299 299 298 298 297 296 296 295 294 293 293 292 291 291 290 289 289 288
284 285 287 288 289 290 292 292 293 294 294 294 294 294 294 295 296 297 297 298 298 298 299 299 299 299 299 298 298 297 297 296 295 294 294 293 292 291 290 290 289 288
285 286 287 288 289 290 291 292 292 293 293 294 294 294 295 296 297 297 297 298 298 298 299 299 300 300 300 300 300 299 298 297 296 295 295 294 293 292 291 290 289 289
285 287 287 288 289 290 291 291 292 292 293 293 294 295 296 296 296 296 297 298 298 299 299 300 301 302 302 301 300 299 298 297 296 295 294 294 293 293 292 291 291 291
286 287 287 288 289 290 290 291 291 292 292 293 294 295 295 295 296 297 297 298 299 300 300 301 302 302 302 301 300 299 298 297 296 295 295 294 294 294 294 293 292 292
285 286 287 288 288 289 290 290 291 291 292 293 294 295 296 296 297 298 299 300 300 301 301 302 302 302 302 301 300 299 298 297 297 296 296 296 295 295 294 294 293 293
285 286 287 288 288 289 289 290 290 291 292 293 294 295 296 297 298 299 300 301 301 301 301 302 302 302 301 301 300 299 299 298 298 297 297 296 296 295 295 295 295 294
286 286 287 287 288 288 289 289 290 291 292 294 295 296 298 299 300 301 301 301 301 301 301 302 302 302 302 301 300 299 299 298 298 297 297 296 296 296 296 296 296 295
286 286 286 287 288 288 289 289 291 292 293 295 296 298 299 300 301 301 301 301 301 301 302 303 303 302 302 301 300 299 299 298 298 298 298 298 298 298 298 297 297 296
285 286 286 287 288 288 289 290 291 293 294 296 297 299 300 301 301 301 301 301 301 302 302 303 302 302 301 300 300 299 299 299 299 299 298 298 298 298 298 297 297 296
285 286 286 287 288 289 290 291 292 294 295 297 298 299 300 300 300 300 300 301 301 302 302 302 302 301 300 300 300 300 299 299 299 299 299 298 298 298 298 297 297 296
285 286 287 288 289 290 290 291 293 294 296 297 298 299 299 299 299 299 300 301 301 302 302 302 301 300 300 300 300 299 299 299 299 299 299 299 299 299 299 298 298 298
286 287 288 288 289 290 291 292 293 295 296 297 298 298 298 298 299 299 300 301 302 302 302 301 300 300 300 300 299 299 299 299 300 300 300 300 300 300 300 299 299 299
287 287 288 289 289 290 291 292 294 295 296 296 296 297 297 298 299 300 300 301 302 301 301 300 300 300 300 300 300 300 300 301 301 301 301 301 301 301 301 300 300 300
287 287 288 289 290 291 292 293 294 295 295 296 296 296 297 298 299 300 301 301 302 301 301 301 301 301 301 301 302 302 302 303 303 303 303 302 302 302 302 301 301 301
287 288 288 290 291 292 293 293 294 294 295 295 296 297 298 299 300 301 302 302 302 302 302 302 302 302 303 303 304 304 304 304 304 304 304 303 303 303 304 304 303 303
287 288 289 290 291 292 293 293 294 294 295 295 296 298 299 300 301 302 302 303 303 303 303 303 303 304 305 305 305 306 306 305 305 305 305 305 305 306 306 306 306 305
288 289 290 290 291 292 292 293 294 294 295 296 297 299 300 301 302 302 303 303 303 303 304 305 305 306 306 306 307 306 306 306 306 306 307 307 308 308 307 307 307 307
288 289 290 290 291 292 292 293 294 295 296 297 299 300 302 302 303 303 303 304 304 305 306 306 307 307 307 307 307 306 306 306 307 308 308 308 308 308 308 309 308 308
288 289 290 291 291 292 293 294 295 296 297 299 301 302 302 303 303 304 304 305 306 307 307 307 308 308 307 307 306 306 307 308 308 309 309 309 309 309 309 309 310 310
289 290 291 292 292 293 294 295 296 297 299 301 302 303 303 303 304 304 305 306 307 308 308 308 307 307 306 306 307 307 308 309 309 309 309 309 310 310 310 310 311 311
Height
10690 10688 10686 10684 10682 10680 10678 10676 10673 10671 10668 10665 10663 10661 10658 10656 10654 10652 10649 10647 10644 10642 10639 10637 10635 10633 10631 10628 10626 10625 10623 10621 10618 10616 10614 10612 10610 10608 10607 10605 10603 10601
10684 10682 10680 10678 10676 10674 10672 10670 10667 10665 10662 10659 10657 10654 10652 10650 10648 10645 10643 10640 10638 10635 10633 10631 10629 10627 10625 10623 10620 10618 10616 10614 10612 10609 10607 10604 10602 10600 10598 10596 10594 10593
10679 10677 10674 10672 10670 10667 10665 10663 10660 10658 10656 10653 10651 10648 10646 10644 10641 10639 10636 10634 10632 10629 10627 10625 10623 10621 10619 10616 10614 10612 10609 10607 10604 10602 10599 10596 10594 10591 10589 10587 10585 10583
10674 10671 10669 10666 10663 10661 10658 10656 10654 10652 10649 10647 10644 10642 10640 10638 10635 10633 10630 10628 10626 10623 10621 10619 10616 10614 10611 10609 10606 10604 10601 10599 10596 10594 10591 10588 10585 10583 10580 10578 10576 10574
10667 10665 10663 10660 10657 10655 10652 10650 10647 10645 10643 10640 10638 10636 10634 10631 10629 10626 10624 10621 10619 10617 10614 10612 10609 10607 10604 10601 10599 10596 10593 10590 10587 10585 10582 10579 10576 10573 10571 10569 10567 10564
10660 10658 10656 10653 10651 10648 10646 10644 10641 10639 10636 10634 10632 10630 10627 10625 10622 10620 10617 10615 10612 10610 10607 10605 10602 10599 10596 10594 10591 10588 10585 10582 10579 10576 10572 10570 10567 10564 10562 10559 10557 10555
10653 10650 10648 10646 10644 10641 10639 10637 10635 10633 10630 10628 10626 10623 10621 10618 10615 10613 10610 10608 10605 10603 10600 10597 10595 10592 10588 10585 10582 10579 10575 10572 10569 10566 10563 10560 10557 10555 10552 10549 10547 10545
10645 10643 10641 10639 10637 10635 10633 10630 10628 10626 10624 10622 10619 10616 10614 10611 10609 10606 10603 10601 10598 10596 10593 10590 10586 10583 10580 10576 10573 10569 10566 10562 10559 10556 10553 10550 10547 10545 10542 10540 10538 10535
10638 10636 10634 10632 10630 10628 10626 10624 10621 10619 10617 10615 10612 10610 10607 10605 10602 10600 10597 10594 10591 10588 10585 10582 10578 10575 10571 10567 10564 10560 10556 10553 10549 10546 10543 10540 10537 10534 10532 10530 10527 10525
10632 10629 10628 10626 10624 10621 10619 10617 10615 10613 10611 10608 10606 10603 10601 10598 10596 10593 10590 10587 10584 10581 10577 10574 10570 10566 10562 10558 10555 10551 10547 10543 10540 10536 10533 10530 10527 10524 10522 10519 10517 10515
10625 10623 10621 10619 10617 10615 10613 10611 10609 10606 10604 10602 10599 10597 10594 10592 10589 10586 10583 10580 10576 10573 10569 10566 10562 10558 10553 10549 10545 10541 10537 10533 10530 10527 10523 10520 10517 10514 10512 10509 10507 10505
10619 10616 10614 10612 10610 10608 10607 10605 10602 10600 10597 10595 10592 10590 10587 10584 10581 10578 10575 10572 10569 10565 10561 10557 10553 10548 10544 10540 10535 10531 10527 10524 10520 10517 10514 10511 10507 10504 10502 10499 10497 10494
10612 10609 10607 10605 10603 10602 10600 10598 10595 10593 10591 10588 10585 10583 10580 10577 10574 10571 10567 10564 10560 10556 10552 10547 10543 10538 10534 10530 10526 10522 10518 10514 10511 10508 10505 10501 10498 10495 10491 10489 10486 10484
10605 10603 10600 10599 10597 10595 10593 10591 10588 10586 10584 10581 10578 10575 10572 10569 10566 10563 10559 10556 10552 10548 10543 10538 10533 10529 10525 10521 10517 10513 10509 10506 10502 10499 10495 10492 10488 10485 10481 10478 10476 10473
10599 10596 10594 10593 10591 10589 10586 10584 10582 10579 10577 10574 10571 10568 10565 10562 10559 10555 10552 10547 10543 10539 10534 10529 10525 10520 10516 10512 10508 10504 10501 10497 10494 10490 10486 10483 10479 10475 10471 10468 10465 10462
10592 10590 10588 10586 10584 10582 10580 10577 10575 10572 10570 10567 10564 10561 10558 10555 10552 10548 10544 10539 10535 10531 10526 10521 10516 10512 10508 10504 10500 10496 10492 10488 10485 10481 10478 10474 10470 10466 10462 10458 10454 10451
10586 10584 10582 10580 10578 10576 10573 10571 10568 10566 10563 10561 10558 10555 10551 10548 10544 10540 10536 10532 10527 10523 10518 10513 10509 10504 10500 10496 10492 10488 10484 10480 10476 10473 10469 10465 10461 10457 10452 10448 10444 10440
10580 10578 10576 10573 10571 10569 10567 10564 10562 10559 10556 10554 10551 10548 10544 10541 10537 10533 10529 10524 10519 10515 10510 10505 10501 10497 10493 10489 10485 10481 10477 10472 10468 10464 10460 10456 10452 10447 10442 10438 10434 10429
10573 10571 10569 10567 10564 10562 10560 10557 10555 10552 10549 10547 10544 10540 10537 10533 10529 10525 10521 10516 10511 10507 10502 10498 10494 10490 10485 10481 10477 10472 10468 10464 10459 10455 10451 10446 10442 10438 10433 10428 10423 10418
10566 10564 10562 10560 10557 10555 10553 10550 10547 10545 10542 10539 10536 10532 10529 10525 10522 10517 10513 10508 10503 10499 10495 10490 10486 10481 10477 10473 10468 10464 10459 10455 10450 10445 10440 10436 10431 10427 10422 10417 10412 10408
10560 10557 10555 10553 10550 10548 10545 10543 10540 10537 10534 10531 10528 10524 10521 10517 10513 10509 10504 10500 10496 10491 10487 10483 10478 10473 10468 10464 10460 10455 10450 10446 10441 10435 10430 10425 10420 10416 10411 10406 10401 10397
10553 10550 10548 10546 10543 10541 10538 10535 10533 10530 10527 10523 10520 10516 10513 10509 10505 10501 10496 10492 10488 10484 10479 10475 10470 10465 10460 10455 10451 10446 10441 10436 10431 10425 10420 10415 10410 10405 10400 10395 10389 10385
10546 10543 10541 10539 10536 10533 10531 10528 10525 10522 10519 10516 10512 10509 10505 10501 10497 10493 10489 10485 10480 10476 10472 10467 10462 10457 10452 10447 10442 10437 10432 10427 10421 10416 10410 10405 10400 10394 10389 10385 10379 10373
10539 10537 10534 10532 10529 10526 10523 10521 10518 10514 10511 10508 10505 10501 10497 10493 10489 10485 10481 10477 10473 10469 10464 10459 10454 10449 10444 10439 10434 10429 10424 10418 10413 10407 10401 10396 10390 10385 10379 10375 10370 10365
10533 10530 10528 10525 10522 10519 10516 10513 10510 10507 10504 10501 10497 10494 10489 10485 10481 10477 10473 10470 10465 10461 10457 10452 10447 10442 10437 10432 10427 10421 10416 10410 10404 10399 10393 10387 10382 10377 10371 10366 10361 10357
10526 10523 10521 10518 10515 10512 10509 10506 10503 10500 10497 10494 10490 10486 10482 10478 10474 10470 10466 10462 10458 10454 10450 10445 10440 10435 10430 10424 10419 10414 10408 10403 10397 10391 10386 10380 10374 10369 10364 10359 10353 10349